Woodward, OK

9:05 PM CDT on July 27, 2016 (GMT -0500)
West Woodward

Weather History for KWWR - November, 2012

Change the Weather History Date:

Thursday, November 29, 2012

  Actual Average (KGAG) Record (KGAG)
Temperature  
Mean Temperature 58 °F -  
Max Temperature 71 °F 52 °F 82 °F (2014)
Min Temperature 44 °F 24 °F 8 °F (1955)
Degree Days  
Heating Degree Days 8    
Growing Degree Days 8 (Base 50)    
Moisture  
Dew Point 35 °F    
Average Humidity 53    
Maximum Humidity 76    
Minimum Humidity 20    
Precipitation  
Precipitation 0.00 in - - ()
Sea Level Pressure  
Sea Level Pressure 30.02 in    
Wind  
Wind Speed 13 mph (SSW)    
Max Wind Speed 20 mph    
Max Gust Speed 28 mph    
Visibility 10 miles    
Events      
Averages and records for this station are not official NWS values.
T = Trace of Precipitation, MM = Missing Value Source: NWS Daily Summary

Daily Weather History Graph

Daily Weather History Graph

Search for Another Location

Airport or City:

Trip Planner

Search our weather history database for the weather conditions in past years. The results will help you decide how hot, cold, wet, or windy it might be!

Date:

Astronomy

Nov. 29, 2012 Rise Set
Actual Time 7:29 AM CST 5:23 PM CST
Civil Twilight 7:01 AM CST 5:51 PM CST
Nautical Twilight 6:29 AM CST 6:23 PM CST
Astronomical Twilight 5:58 AM CST 6:54 PM CST
Moon 6:27 PM CST (11/29) 8:17 AM CST (11/29)
Length of Visible Light 10h 49m
Length of Day
9h 53m
Full, 99% of the Moon is Illuminated
Nov 29
Full
Dec 6
Last Quarter
Dec 13
New
Dec 19
First Quarter
Dec 28
Full

Hourly Weather History & Observations

Time (CST) Temp. Windchill Dew Point Humidity Pressure Visibility Wind Dir Wind Speed Gust Speed Precip Events Conditions
12:15 AM 53.6 °F - 37.4 °F 54% 30.07 in 10.0 mi South 19.6 mph 27.6 mph N/A   Clear
12:35 AM 53.6 °F - 39.2 °F 58% 30.07 in 10.0 mi South 17.3 mph 27.6 mph N/A   Clear
12:55 AM 51.8 °F - 39.2 °F 62% 30.07 in 10.0 mi South 18.4 mph 24.2 mph N/A   Clear
1:15 AM 51.8 °F - 39.2 °F 62% 30.07 in 10.0 mi South 19.6 mph 27.6 mph N/A   Clear
1:35 AM 51.8 °F - 39.2 °F 62% 30.06 in 10.0 mi South 17.3 mph 26.5 mph N/A   Clear
1:55 AM 50.0 °F - 37.4 °F 62% 30.07 in 10.0 mi SSW 13.8 mph 23.0 mph N/A   Clear
2:15 AM 50.0 °F - 37.4 °F 62% 30.07 in 10.0 mi SSW 12.7 mph - N/A   Clear
2:35 AM 50.0 °F - 37.4 °F 62% 30.07 in 10.0 mi SSW 13.8 mph - N/A   Clear
2:55 AM 48.2 °F - 37.4 °F 66% 30.06 in 10.0 mi SSW 11.5 mph - N/A   Clear
3:15 AM 46.4 °F 41.9 °F 37.4 °F 71% 30.06 in 10.0 mi SSW 9.2 mph - N/A   Clear
3:35 AM 46.4 °F 41.5 °F 37.4 °F 71% 30.05 in 10.0 mi SSW 10.4 mph - N/A   Clear
3:55 AM 46.4 °F 41.1 °F 37.4 °F 71% 30.05 in 10.0 mi SSW 11.5 mph - N/A   Clear
4:15 AM 44.6 °F 39.7 °F 37.4 °F 76% 30.04 in 10.0 mi SSW 9.2 mph - N/A   Clear
4:35 AM 46.4 °F 40.7 °F 37.4 °F 71% 30.03 in 10.0 mi South 12.7 mph - N/A   Clear
4:55 AM 46.4 °F 40.7 °F 37.4 °F 71% 30.03 in 10.0 mi SSW 12.7 mph - N/A   Clear
5:15 AM 46.4 °F 40.4 °F 37.4 °F 71% 30.03 in 10.0 mi SSW 13.8 mph - N/A   Clear
5:35 AM 46.4 °F 40.1 °F 37.4 °F 71% 30.02 in 10.0 mi South 15.0 mph - N/A   Clear
5:55 AM 46.4 °F 41.1 °F 37.4 °F 71% 30.02 in 10.0 mi South 11.5 mph - N/A   Clear
6:15 AM 44.6 °F 38.1 °F 37.4 °F 76% 30.02 in 10.0 mi South 13.8 mph - N/A   Clear
6:35 AM 44.6 °F 37.4 °F 37.4 °F 76% 30.01 in 10.0 mi South 16.1 mph - N/A   Clear
6:55 AM 44.6 °F 37.4 °F 37.4 °F 76% 30.01 in 10.0 mi South 16.1 mph - N/A   Clear
7:15 AM 46.4 °F 39.5 °F 37.4 °F 71% 30.01 in 10.0 mi South 17.3 mph - N/A   Clear
7:35 AM 44.6 °F 37.4 °F 37.4 °F 76% 30.01 in 10.0 mi South 16.1 mph - N/A   Clear
7:55 AM 46.4 °F 39.5 °F 37.4 °F 71% 30.01 in 10.0 mi South 17.3 mph 21.9 mph N/A   Clear
8:15 AM 46.4 °F 39.8 °F 37.4 °F 71% 30.01 in 10.0 mi South 16.1 mph 24.2 mph N/A   Clear
8:35 AM 50.0 °F - 37.4 °F 62% 30.01 in 10.0 mi SSW 18.4 mph - N/A   Clear
8:55 AM 51.8 °F - 37.4 °F 58% 30.02 in 10.0 mi SSW 18.4 mph 24.2 mph N/A   Clear
9:15 AM 53.6 °F - 39.2 °F 58% 30.02 in 10.0 mi SSW 16.1 mph - N/A   Clear
9:35 AM 55.4 °F - 37.4 °F 51% 30.02 in 10.0 mi SW 17.3 mph - N/A   Clear
9:55 AM 55.4 °F - 37.4 °F 51% 30.04 in 10.0 mi SW 16.1 mph 21.9 mph N/A   Clear
10:15 AM 57.2 °F - 37.4 °F 48% 30.03 in 10.0 mi SW 18.4 mph - N/A   Clear
10:35 AM 59.0 °F - 35.6 °F 42% 30.04 in 10.0 mi SW 16.1 mph - N/A   Clear
10:55 AM 59.0 °F - 35.6 °F 42% 30.04 in 10.0 mi SW 12.7 mph - N/A   Clear
11:15 AM 60.8 °F - 35.6 °F 39% 30.04 in 10.0 mi SW 12.7 mph - N/A   Clear
11:35 AM 60.8 °F - 35.6 °F 39% 30.04 in 10.0 mi WSW 9.2 mph - N/A   Clear
11:55 AM 62.6 °F - 35.6 °F 37% 30.02 in 10.0 mi SW 11.5 mph - N/A   Clear
12:15 PM 62.6 °F - 33.8 °F 34% 30.01 in 10.0 mi SW 5.8 mph - N/A   Clear
12:35 PM 64.4 °F - 33.8 °F 32% 30.00 in 10.0 mi SSW 9.2 mph - N/A   Clear
12:55 PM 66.2 °F - 32.0 °F 28% 30.00 in 10.0 mi SSW 12.7 mph 16.1 mph N/A   Clear
1:15 PM 68.0 °F - 30.2 °F 24% 29.99 in 10.0 mi SSW 8.1 mph - N/A   Clear
1:35 PM 69.8 °F - 30.2 °F 23% 29.98 in 10.0 mi SSW 10.4 mph - N/A   Clear
1:55 PM 69.8 °F - 32.0 °F 25% 29.97 in 10.0 mi South 9.2 mph - N/A   Clear
2:15 PM 69.8 °F - 30.2 °F 23% 29.97 in 10.0 mi SSW 8.1 mph - N/A   Clear
2:35 PM 69.8 °F - 32.0 °F 25% 29.97 in 10.0 mi South 10.4 mph - N/A   Clear
2:55 PM 69.8 °F - 30.2 °F 23% 29.97 in 10.0 mi SSW 10.4 mph - N/A   Clear
3:15 PM 71.6 °F - 30.2 °F 22% 29.97 in 10.0 mi SSW 10.4 mph - N/A   Clear
3:35 PM 69.8 °F - 28.4 °F 21% 29.96 in 10.0 mi SSW 6.9 mph - N/A   Clear
3:55 PM 69.8 °F - 26.6 °F 20% 29.96 in 10.0 mi SW 8.1 mph - N/A   Clear
4:15 PM 69.8 °F - 28.4 °F 21% 29.97 in 10.0 mi SW 3.5 mph - N/A   Clear
4:35 PM 69.8 °F - 28.4 °F 21% 29.97 in 10.0 mi SSW 4.6 mph - N/A   Clear
4:55 PM 66.2 °F - 26.6 °F 23% 29.97 in 10.0 mi SSW 4.6 mph - N/A   Clear
5:15 PM 60.8 °F - 28.4 °F 29% 29.98 in 10.0 mi South 4.6 mph - N/A   Clear
5:35 PM 60.8 °F - 28.4 °F 29% 29.98 in 10.0 mi Calm Calm - N/A   Clear
5:55 PM 59.0 °F - 28.4 °F 31% 29.99 in 10.0 mi SSE 4.6 mph - N/A   Clear
6:15 PM 55.4 °F - 32.0 °F 41% 29.99 in 10.0 mi SSE 4.6 mph - N/A   Clear
6:35 PM 53.6 °F - 32.0 °F 44% 30.00 in 10.0 mi SSE 6.9 mph - N/A   Clear
6:55 PM 51.8 °F - 33.8 °F 50% 30.00 in 10.0 mi SW 5.8 mph - N/A   Clear
7:15 PM 53.6 °F - 33.8 °F 47% 30.00 in 10.0 mi West 3.5 mph - N/A   Clear
7:35 PM 53.6 °F - 33.8 °F 47% 30.01 in 10.0 mi SW 5.8 mph - N/A   Clear
7:55 PM 50.0 °F - 35.6 °F 58% 30.01 in 10.0 mi SSW 6.9 mph - N/A   Clear
8:15 PM 55.4 °F - 39.2 °F 54% 30.01 in 10.0 mi South 11.5 mph - N/A   Clear
8:35 PM 55.4 °F - 41.0 °F 58% 30.01 in 10.0 mi South 10.4 mph - N/A   Clear
8:55 PM 55.4 °F - 41.0 °F 58% 30.02 in 10.0 mi SSW 9.2 mph - N/A   Clear
9:15 PM 55.4 °F - 41.0 °F 58% 30.02 in 10.0 mi SSW 10.4 mph - N/A   Clear
9:35 PM 51.8 °F - 37.4 °F 58% 30.02 in 10.0 mi SSW 9.2 mph - N/A   Clear
9:55 PM 46.4 °F 41.5 °F 37.4 °F 71% 30.02 in 10.0 mi SSW 10.4 mph - N/A   Clear
10:15 PM 46.4 °F 42.4 °F 39.2 °F 76% 30.02 in 10.0 mi SW 8.1 mph - N/A   Clear
10:35 PM 44.6 °F 39.7 °F 37.4 °F 76% 30.02 in 10.0 mi SSW 9.2 mph - N/A   Clear
10:55 PM 44.6 °F 39.2 °F 37.4 °F 76% 30.03 in 10.0 mi WSW 10.4 mph - N/A   Clear
11:15 PM 44.6 °F 39.2 °F 37.4 °F 76% 30.02 in 10.0 mi SW 10.4 mph - N/A   Clear
11:35 PM 44.6 °F 39.7 °F 37.4 °F 76% 30.02 in 10.0 mi SW 9.2 mph - N/A   Clear
11:55 PM 44.6 °F 39.7 °F 37.4 °F 76% 30.02 in 10.0 mi SW 9.2 mph - N/A   Clear